DMC 3-FM1

Satellite information

Favourite Embed

Satellite Type and Status

PAYLOADIN ORBIT

Key statistics

Satellite DMC 3-FM1 at a glance.

Uptime

3713

Days in orbit

Revolutions

≈ 14.9

Per day

Orbit

SSO

Sun Synchronous Orbit

Inclination

97.7

Latest

Satellite identification and parameters

Extended collection of information and parameters for DMC 3-FM1.

Object identification

Identified? True

Debris? False

Object name: DMC 3-FM1

International designator: 2015-032A

Object number (NORAD): 40715

Object ID (CCSDS): 40715

Country: UNITED KINGDOM (UK)

Current information (Y/N): Y

RCS size: LARGE

Orbital parameters

Period: 96.957 minutes

Inclination: 97.6841 deg

SMA: 6991.094 km

Apoapsis: 615.79 km

Periapsis: 610.128 km

RAAN: 121.5368 deg

Eccentricy: 0.00040498

Argument of periapsis: 261.7469 deg

Mean anomaly: 98.3288 deg

Mean motion: 14.85200387 rev/day

Mean motion (dot): 0.00000894 rev/day2

B* drag term: 0.00011031028 1/REarth

Two-line elements (TLE)

Creation date: Sept. 8, 2025, 3:16 a.m.

Reference frame: TEME

Reference center: EARTH

Epoch: Sept. 7, 2025, 9:44 p.m. UTC

TLE line 0: 0 DMC 3-FM1

TLE line 1: 1 40715U 15032A 25250.90622578 .00000894 00000-0 11031-3 0 9991

TLE line 2: 2 40715 97.6841 121.5368 0004050 261.7469 98.3288 14.85200387548007

Live tracking on map

Real-time ground track for satellite DMC 3-FM1.

In-orbit conjunctions

There are no conjunctions computed for DMC 3-FM1, at the moment. Check back to stay up to date, as we update our databases every day.

Go to all conjunctions

Associated space launch

The Polar Satellite Launch Vehicle (PSLV), in its thirtieth flight (PSLV-C28), will launch three identical DMC3 optical earth observation satellites. A, B and C. It will also carry two auxiliary satellites from UK. CBNT-1, a technology demonstrator earth observation micro satellite, and De-OrbitSail, a technology demonstrator nano satellite.

DMC 3-FM1 was lifted into orbit during the mission ‘PSLV XL | DMC-3A, DMC-3B, DMC-3C, CBNT-1 & DeOrbitSAIL’, on board a PSLV-XL space rocket.

The launch took place on July 10, 2015, 4:28 p.m. from Satish Dhawan Space Centre First Launch Pad.

For more information about the launch, click the button.

Launch to space PSLV XL | DMC-3A, DMC-3B, DMC-3C, CBNT-1 & DeOrbitSAIL
PSLV XL | DMC-3A, DMC-3B, DMC-3C, CBNT-1 & DeOrbitSAIL

Agency: N/A

Status: Launch Successful

Launch date: July 10, 2015, 4:28 p.m. UTC

Rocket: PSLV-XL

Launch pad: Satish Dhawan Space Centre First Launch Pad

Location: Satish Dhawan Space Centre, India

...

Latest news about this satellite

There are no fresh news available about this satellite. Check back as we update our databases every day.


Newsletter sign-up

Weekly statistics, charts and insights to help you stay on top of the space industry.